CAPE
786 991 1336 1534 1640 1617 1402 1391 1405 1554 1752 1878 1992 1561 981 970 1010 1091 1396 1227 1070 1133 934 796 832 535 271 319 387 305 215 237
520 793 1070 1269 1443 1347 1245 1247 1251 1379 1594 1749 1721 1350 1004 777 648 670 1108 1201 926 888 733 706 656 281 247 288 225 222 176 300
376 572 592 667 1027 1276 1167 1154 1139 1235 1411 1559 1263 1163 790 692 330 424 701 946 781 644 570 641 518 211 150 125 156 120 125 179
243 439 532 561 880 1158 1267 1148 1155 1259 1377 1352 1462 1083 663 306 117 305 411 451 536 509 442 377 313 52 53 76 50 104 129 102
159 350 499 569 890 924 979 1169 1178 1207 1271 1256 1350 490 462 89 0 6 14 215 167 266 265 58 1 15 23 0 18 98 126 143
183 129 353 452 717 893 890 901 1003 959 905 1210 1197 418 73 8 0 0 5 41 64 33 26 5 0 1 9 0 19 62 67 66
433 158 284 383 684 749 820 966 956 1072 919 1151 1041 713 266 0 0 0 8 26 46 34 38 9 0 0 0 0 15 63 75 57
656 323 241 403 646 627 777 978 949 974 941 1105 1078 908 612 103 8 11 11 40 19 19 46 0 0 0 0 0 5 28 23 20
865 732 367 469 643 497 573 797 797 838 872 1038 1101 1143 957 484 62 22 28 28 18 0 8 0 0 0 0 0 0 2 3 7
635 1172 589 532 693 595 540 606 761 675 757 894 852 872 1037 626 351 107 40 55 29 20 1 0 2 0 0 0 0 0 0 0
21 1309 966 681 727 737 624 662 671 636 538 495 553 654 988 775 577 396 102 79 47 6 2 1 16 0 0 0 0 0 1 0
0 933 1501 1104 949 920 952 814 669 613 561 522 567 629 906 954 676 440 234 128 83 29 24 1 5 0 0 0 0 0 1 0
0 400 1789 1693 1610 1471 1479 1329 1009 903 684 657 650 725 892 914 789 467 200 199 162 76 71 17 1 0 0 1 1 0 1 1
0 1 1610 1926 2053 1943 1774 1660 1328 1130 1152 1079 1017 1008 1066 914 790 568 308 311 311 172 69 42 5 0 0 0 1 2 0 0
0 4 1053 2054 2167 1800 944 978 741 793 857 1120 1290 1075 1187 1125 1018 863 547 500 371 209 41 34 35 1 0 0 2 0 0 1
130 1119 1767 1631 1666 1707 1559 1382 1326 996 1292 1115 660 959 1085 1174 1187 978 736 395 306 153 43 47 18 4 0 0 0 0 0 7
258 456 499 332 541 974 645 854 997 752 1102 1074 775 500 904 1057 878 991 779 370 366 180 29 33 23 6 0 0 0 0 0 0
44 348 281 330 336 275 416 504 491 452 527 852 1194 653 367 727 589 631 608 409 305 110 39 28 17 24 0 1 0 0 0 0
295 200 285 136 64 8 10 140 260 420 451 522 648 588 305 133 208 320 356 310 218 178 62 50 36 27 7 6 0 0 0 0
0 0 0 0 0 0 0 0 4 61 132 249 337 387 220 80 126 129 283 265 222 122 77 83 41 33 42 23 4 0 0 0
CIN
-588 -495 -373 -306 -263 -256 -289 -272 -233 -170 -105 -66 -43 -79 -141 -137 -128 -112 -56 -49 -52 -31 -39 -38 -40 -70 -104 -98 -78 -84 -85 -91
-616 -497 -405 -338 -297 -340 -342 -305 -266 -216 -147 -90 -74 -107 -144 -168 -180 -172 -98 -54 -66 -48 -39 -38 -50 -102 -105 -95 -135 -133 -108 -81
-644 -534 -504 -455 -362 -336 -364 -323 -281 -231 -180 -135 -152 -137 -182 -190 -253 -227 -166 -89 -82 -72 -55 -44 -59 -103 -123 -170 -144 -144 -136 -102
-666 -550 -481 -449 -352 -303 -294 -295 -274 -225 -167 -158 -122 -165 -223 -291 -347 -252 -222 -179 -111 -95 -68 -74 -81 -145 -186 -178 -221 -169 -170 -142
-636 -566 -496 -453 -362 -341 -323 -267 -243 -216 -186 -165 -136 -288 -270 -409 -19 -56 -331 -251 -224 -143 -98 -197 -12 -170 -181 -0 -201 -143 -142 -141
-535 -541 -496 -468 -396 -348 -335 -306 -264 -246 -255 -184 -165 -301 -415 -446 -0 -0 -337 -400 -344 -244 -223 -156 -0 -110 -192 -0 -186 -158 -168 -156
-459 -533 -465 -474 -403 -401 -377 -337 -318 -263 -266 -197 -194 -231 -315 -0 -0 -0 -352 -378 -383 -293 -221 -201 -0 -0 -0 -48 -198 -151 -113 -119
-451 -516 -498 -438 -438 -453 -418 -351 -334 -303 -273 -222 -197 -198 -229 -352 -510 -473 -404 -356 -383 -344 -247 -0 -0 -0 -0 -0 -198 -162 -157 -117
-431 -505 -526 -431 -414 -485 -445 -380 -370 -327 -305 -242 -213 -167 -173 -236 -379 -450 -408 -378 -373 -0 -343 -0 -0 -0 -0 -0 -0 -191 -172 -162
-313 -323 -454 -471 -407 -441 -464 -436 -350 -358 -308 -249 -243 -215 -168 -211 -242 -312 -388 -288 -316 -314 -36 -0 -140 -0 -0 -0 -0 -0 -0 -0
-285 -304 -384 -460 -425 -406 -429 -399 -347 -340 -337 -331 -278 -198 -139 -167 -181 -199 -270 -248 -260 -330 -20 -34 -234 -0 -0 -0 -0 -0 -91 -0
-0 -314 -286 -384 -385 -327 -292 -319 -337 -343 -329 -306 -259 -219 -124 -97 -133 -166 -171 -196 -215 -269 -276 -10 -284 -0 -0 -0 -0 -0 -196 -0
-0 -434 -242 -241 -209 -219 -196 -235 -300 -285 -298 -258 -233 -194 -152 -119 -110 -145 -181 -181 -184 -202 -170 -213 -0 -0 -0 -0 -0 -0 -0 -0
-0 -115 -241 -217 -197 -184 -167 -196 -203 -212 -197 -186 -190 -155 -183 -164 -122 -153 -158 -120 -75 -130 -186 -186 -69 -0 -0 -0 -0 -0 -0 -0
-0 -109 -330 -151 -122 -173 -345 -276 -249 -184 -179 -159 -114 -139 -118 -127 -106 -102 -140 -87 -68 -102 -196 -167 -148 -0 -0 -0 -0 -0 -0 -0
-711 -370 -153 -180 -164 -140 -214 -240 -221 -242 -152 -189 -134 -120 -119 -82 -67 -66 -93 -125 -86 -88 -165 -134 -146 -183 -0 -0 -0 -0 -0 -0
-535 -515 -477 -545 -442 -286 -320 -198 -224 -318 -195 -180 -166 -173 -96 -73 -70 -57 -57 -98 -64 -77 -141 -118 -161 -181 -1 -0 -0 -0 -0 -0
-665 -472 -574 -492 -463 -413 -315 -258 -288 -319 -345 -206 -122 -156 -158 -93 -76 -57 -49 -65 -61 -82 -120 -126 -146 -156 -0 -56 -0 -0 -0 -0
-254 -322 -435 -593 -618 -214 -235 -432 -353 -279 -294 -250 -129 -108 -128 -164 -106 -65 -47 -63 -67 -59 -94 -113 -120 -139 -125 -214 -0 -0 -0 -0
-0 -0 -0 -0 -0 -0 -0 -0 -107 -356 -321 -283 -196 -89 -140 -172 -97 -80 -57 -55 -45 -58 -62 -92 -115 -149 -140 -183 -197 -0 -0 -0
Wind_Speed
9 10 11 14 14 14 14 16 16 15 15 15 14 15 14 12 11 10 11 12 12 12 12 12 13 11 8 10 11 11 5 4
4 6 7 8 10 13 13 13 13 14 14 13 12 13 13 12 11 10 11 12 12 12 11 11 11 10 12 12 11 13 5 4
6 9 5 5 6 10 11 11 11 10 11 12 10 7 8 9 8 11 11 12 12 11 10 9 9 9 8 11 12 3 4 3
7 9 10 8 5 9 8 7 7 7 7 9 8 8 7 7 7 10 11 10 12 12 10 8 7 4 3 6 2 3 6 4
4 7 10 11 8 8 6 4 6 6 10 9 7 5 4 3 3 3 3 7 4 6 5 4 4 3 3 2 2 3 3 5
4 4 9 10 5 7 8 7 7 6 7 9 7 4 4 3 3 4 3 3 5 5 3 5 5 5 5 4 3 3 2 2
9 8 9 11 10 7 8 10 9 8 7 8 7 6 6 3 3 4 4 4 5 6 5 4 5 5 5 5 5 5 6 2
16 14 12 11 11 10 9 9 9 9 8 8 10 7 6 6 4 4 4 4 4 4 6 5 4 4 5 6 5 3 5 5
14 19 18 14 13 10 7 8 8 10 10 12 12 11 9 9 6 4 4 4 5 4 4 4 4 4 4 4 4 4 4 4
9 10 15 17 14 10 8 8 8 8 9 9 14 10 11 9 8 7 5 5 5 4 4 6 5 5 4 4 4 4 4 5
11 13 17 20 16 11 10 11 9 9 9 9 14 13 10 9 8 8 9 7 7 7 6 5 5 4 4 4 4 4 5 3
11 12 17 18 12 9 8 8 9 10 11 12 12 11 12 9 7 9 9 8 8 8 8 6 4 6 4 3 3 3 4 4
10 13 17 12 12 12 11 12 11 10 10 13 16 15 14 13 8 9 10 11 12 11 9 9 3 6 4 3 1 3 4 4
9 15 16 16 14 12 7 9 8 9 8 12 14 15 16 13 13 11 12 10 11 12 10 5 3 9 4 4 3 1 3 5
9 11 14 14 14 9 6 5 1 3 4 7 10 13 13 15 15 11 12 10 10 12 12 14 9 8 10 6 4 4 2 3
7 8 12 8 11 10 13 10 6 5 6 7 8 11 14 14 13 13 12 9 10 11 10 12 10 11 8 6 2 6 4 3
2 10 8 7 8 11 6 3 3 3 4 6 7 5 7 12 12 13 12 10 11 12 12 13 11 9 11 9 3 2 3 4
5 10 12 10 11 7 8 7 5 1 5 3 4 6 6 10 11 12 11 12 13 11 13 14 12 10 10 10 12 8 5 4
6 5 10 12 14 13 6 9 6 3 2 4 3 3 4 8 9 11 10 12 13 12 13 14 13 12 12 11 10 11 4 7
10 10 11 11 13 14 11 9 5 4 3 2 1 3 3 4 6 10 13 13 13 13 11 12 14 13 15 13 9 9 9 8
Wind_Direction
161 177 184 177 173 169 165 162 162 163 162 163 158 152 157 159 158 155 152 141 140 142 143 139 143 133 127 140 139 134 126 133
141 166 180 181 180 167 163 162 165 165 164 165 159 155 162 165 167 165 158 151 152 148 148 148 145 142 148 154 140 130 131 140
152 181 172 167 179 175 159 158 163 162 165 167 155 162 166 169 170 173 166 156 155 152 152 155 145 143 153 141 145 134 139 149
166 179 183 171 168 179 170 167 171 171 176 175 176 170 169 163 170 169 169 163 150 153 161 141 136 134 154 139 107 147 146 154
224 173 182 181 176 178 180 177 179 185 185 185 178 163 159 150 145 161 157 158 143 141 148 135 131 134 161 104 142 140 200 141
215 264 194 190 170 179 176 180 184 190 193 182 178 165 156 158 151 159 155 153 141 133 155 138 152 153 150 161 172 171 119 80
191 189 211 197 187 180 184 187 187 185 176 186 172 178 170 149 155 152 159 150 158 164 148 164 152 152 158 165 176 168 141 162
184 189 198 199 195 188 187 187 186 184 185 186 180 176 177 171 160 169 169 161 152 147 159 182 158 155 168 184 186 174 147 156
192 188 184 198 202 187 186 195 182 191 194 183 179 176 176 172 172 179 183 155 145 145 147 176 154 159 174 159 156 142 129 155
203 199 192 191 196 193 186 186 190 192 196 199 200 188 174 174 177 184 173 174 167 180 171 190 170 172 156 171 160 134 157 157
223 197 193 196 194 188 184 181 193 199 194 194 201 206 188 175 182 181 173 185 187 186 191 185 175 165 162 168 163 159 155 157
229 207 202 195 186 178 182 184 196 195 195 200 190 195 192 178 178 178 183 187 191 188 186 183 183 167 146 144 150 141 147 164
219 199 206 185 188 183 189 193 193 196 198 198 195 197 191 190 188 182 190 196 198 189 187 184 177 156 111 110 99 166 180 172
230 211 197 193 186 189 189 191 207 200 190 193 196 198 190 184 195 192 194 203 195 187 182 170 158 174 147 119 161 153 212 191
224 206 203 194 188 162 119 116 124 151 198 194 214 195 192 188 197 194 191 197 203 190 190 186 176 184 176 147 161 197 142 179
206 150 179 148 156 169 170 169 164 170 199 165 223 215 202 198 200 198 197 189 197 193 199 199 189 184 187 199 187 143 168 165
215 112 102 124 139 164 151 197 121 122 150 155 176 208 228 213 207 204 199 192 203 195 190 203 196 184 189 182 153 173 127 136
341 109 106 102 99 57 113 139 113 39 137 168 181 205 207 219 215 213 206 202 200 196 196 203 199 199 186 196 195 178 178 160
70 9 77 103 86 73 343 68 65 103 140 148 188 198 203 226 221 217 212 208 207 202 199 199 199 205 191 199 200 204 175 196
63 52 49 45 57 85 43 14 14 5 14 52 266 249 209 225 221 224 215 206 207 204 201 203 201 205 202 198 200 206 200 192